Weather History for Thomson, GA

Change the Weather History Date:

Sunday, September 29, 2013

  Actual Average (KDBN) Record (KDBN)
Temperature  
Mean Temperature 63 °F -  
Max Temperature 75 °F 83 °F 97 °F (1972)
Min Temperature 51 °F 58 °F 40 °F (1967)
Degree Days  
Heating Degree Days 2    
Growing Degree Days 13 (Base 50)    
Moisture  
Dew Point 58 °F    
Average Humidity 86    
Maximum Humidity 100    
Minimum Humidity 52    
Precipitation  
Precipitation 0.00 in - - ()
Sea Level Pressure  
Sea Level Pressure 30.15 in    
Wind  
Wind Speed 2 mph (NNE)    
Max Wind Speed 8 mph    
Max Gust Speed -    
Visibility 10 miles    
Events      
Averages and records for this station are not official NWS values.
T = Trace of Precipitation, MM = Missing Value Source: NWS Daily Summary

Daily Weather History Graph

Daily Weather History Graph

Search for Another Location

Airport:

Trip Planner

Search our weather history database for the weather conditions in past years. The results will help you decide how hot, cold, wet, or windy it might be!

Date:

Astronomy

Sep. 29, 2013 Rise Set
Actual Time 7:23 AM EDT 7:16 PM EDT
Civil Twilight 6:58 AM EDT 7:41 PM EDT
Nautical Twilight 6:29 AM EDT 8:10 PM EDT
Astronomical Twilight 6:00 AM EDT 8:39 PM EDT
Moon 2:16 AM EDT (9/29) 4:00 PM EDT (9/29)
Length of Visible Light 12h 43m
Length of Day
11h 53m
Waning Crescent, 27% of the Moon is Illuminated
Sep 29
Waning Crescent
Oct 4
New
Oct 11
First Quarter
Oct 18
Full
Oct 26
Last Quarter

Hourly Weather History & Observations

Time (EDT) Temp. Dew Point Humidity Pressure Visibility Wind Dir Wind Speed Gust Speed Precip Events Conditions
12:15 AM 53.8 °F 53.8 °F 100% 30.19 in 10.0 mi Calm Calm - N/A   Mostly Cloudy
12:35 AM 54.7 °F 54.7 °F 100% 30.19 in 10.0 mi Calm Calm - N/A   Mostly Cloudy
12:55 AM 55.2 °F 55.2 °F 100% 30.20 in 10.0 mi Calm Calm - N/A   Overcast
1:15 AM 55.9 °F 55.9 °F 100% 30.20 in 10.0 mi Calm Calm - N/A   Overcast
1:35 AM 56.5 °F 56.5 °F 100% 30.19 in 10.0 mi NE 3.5 mph - N/A   Overcast
1:55 AM 55.8 °F 55.8 °F 100% 30.20 in 10.0 mi NNE 3.5 mph - N/A   Mostly Cloudy
2:15 AM 55.4 °F 55.4 °F 100% 30.20 in 10.0 mi Calm Calm - N/A   Mostly Cloudy
2:35 AM 56.7 °F 56.7 °F 100% 30.20 in 10.0 mi Calm Calm - N/A   Mostly Cloudy
2:55 AM 56.8 °F 56.8 °F 100% 30.19 in 10.0 mi Calm Calm - N/A   Overcast
3:15 AM 56.3 °F 56.3 °F 100% 30.19 in 10.0 mi Calm Calm - N/A   Scattered Clouds
3:35 AM 56.8 °F 56.8 °F 100% 30.19 in 10.0 mi NE 3.5 mph - N/A   Clear
3:55 AM 55.8 °F 55.8 °F 100% 30.19 in 10.0 mi Calm Calm - N/A   Mostly Cloudy
4:15 AM 56.5 °F 56.5 °F 100% 30.18 in 10.0 mi Calm Calm - N/A   Overcast
4:35 AM 56.8 °F 56.8 °F 100% 30.17 in 10.0 mi Calm Calm - N/A   Overcast
4:55 AM 57.4 °F 57.4 °F 100% 30.17 in 10.0 mi North 3.5 mph - N/A   Overcast
5:15 AM 57.4 °F 57.2 °F 99% 30.18 in 10.0 mi Calm Calm - N/A   Overcast
5:35 AM 56.3 °F 56.3 °F 100% 30.18 in 10.0 mi Calm Calm - N/A   Overcast
5:55 AM 54.9 °F 54.9 °F 100% 30.18 in 10.0 mi Calm Calm - N/A   Scattered Clouds
6:15 AM 54.3 °F 54.3 °F 100% 30.18 in 10.0 mi Calm Calm - N/A   Clear
6:35 AM 53.4 °F 53.4 °F 100% 30.19 in 7.0 mi Calm Calm - N/A   Clear
6:55 AM 53.2 °F 53.2 °F 100% 30.19 in 10.0 mi Calm Calm - N/A   Clear
7:15 AM 51.8 °F 51.8 °F 100% 30.19 in 3.0 mi Calm Calm - N/A   Clear
7:35 AM 52.3 °F 52.3 °F 100% 30.19 in 7.0 mi Calm Calm - N/A   Clear
7:55 AM 51.8 °F 51.8 °F 100% 30.19 in 5.0 mi Calm Calm - N/A   Clear
8:15 AM 53.8 °F 53.8 °F 100% 30.19 in 10.0 mi Calm Calm - N/A   Clear
8:35 AM 56.7 °F 56.7 °F 100% 30.20 in 10.0 mi North 3.5 mph - N/A   Clear
8:55 AM 58.8 °F 57.4 °F 95% 30.20 in 10.0 mi North 3.5 mph - N/A   Clear
9:15 AM 60.3 °F 58.1 °F 93% 30.19 in 10.0 mi NNE 3.5 mph - N/A   Clear
9:35 AM 61.3 °F 58.6 °F 91% 30.19 in 10.0 mi North 4.6 mph - N/A   Clear
9:55 AM 63.0 °F 59.0 °F 87% 30.20 in 10.0 mi NE 4.6 mph - N/A   Clear
10:15 AM 64.0 °F 59.5 °F 85% 30.20 in 10.0 mi NE 3.5 mph - N/A   Clear
10:35 AM 65.3 °F 59.5 °F 82% 30.19 in 10.0 mi Calm Calm - N/A   Clear
10:55 AM 66.9 °F 60.4 °F 80% 30.19 in 10.0 mi ENE 5.8 mph - N/A   Clear
11:15 AM 68.0 °F 60.6 °F 77% 30.19 in 10.0 mi NNE 4.6 mph - N/A   Clear
11:35 AM 69.6 °F 60.3 °F 72% 30.18 in 10.0 mi North 5.8 mph - N/A   Clear
11:55 AM 70.7 °F 60.1 °F 69% 30.18 in 10.0 mi NNE 4.6 mph - N/A   Scattered Clouds
12:15 PM 70.7 °F 59.9 °F 69% 30.18 in 10.0 mi NE 4.6 mph - N/A   Scattered Clouds
12:35 PM 70.0 °F 59.9 °F 70% 30.17 in 10.0 mi NE 4.6 mph - N/A   Scattered Clouds
12:55 PM 72.3 °F 59.4 °F 64% 30.16 in 10.0 mi NNE 5.8 mph - N/A   Mostly Cloudy
1:15 PM 70.7 °F 59.0 °F 66% 30.16 in 10.0 mi NE 5.8 mph - N/A   Mostly Cloudy
1:35 PM 69.6 °F 57.6 °F 65% 30.15 in 10.0 mi Calm Calm - N/A   Scattered Clouds
1:55 PM 72.5 °F 56.7 °F 57% 30.13 in 10.0 mi Calm Calm - N/A   Scattered Clouds
2:15 PM 71.8 °F 59.2 °F 64% 30.12 in 10.0 mi NNE 4.6 mph - N/A   Mostly Cloudy
2:35 PM 73.2 °F 59.0 °F 61% 30.11 in 10.0 mi NE 5.8 mph - N/A   Scattered Clouds
2:55 PM 73.4 °F 57.6 °F 58% 30.11 in 10.0 mi Calm Calm - N/A   Mostly Cloudy
3:15 PM 72.1 °F 60.3 °F 66% 30.10 in 10.0 mi NNW 4.6 mph - N/A   Mostly Cloudy
3:35 PM 75.0 °F 58.8 °F 57% 30.09 in 10.0 mi NNE 5.8 mph - N/A   Scattered Clouds
3:55 PM 73.4 °F 57.2 °F 57% 30.08 in 10.0 mi NE 5.8 mph - N/A   Scattered Clouds
4:15 PM 73.6 °F 57.0 °F 56% 30.08 in 10.0 mi North 6.9 mph - N/A   Scattered Clouds
4:35 PM 74.8 °F 56.5 °F 53% 30.08 in 10.0 mi NNE 5.8 mph - N/A   Scattered Clouds
4:55 PM 75.0 °F 56.1 °F 52% 30.08 in 10.0 mi NE 8.1 mph - N/A   Mostly Cloudy
5:15 PM 73.4 °F 56.3 °F 55% 30.08 in 10.0 mi NE 3.5 mph - N/A   Scattered Clouds
5:35 PM 72.9 °F 57.6 °F 59% 30.08 in 10.0 mi NNE 3.5 mph - N/A   Mostly Cloudy
5:55 PM 71.6 °F 59.0 °F 64% 30.09 in 10.0 mi NNE 3.5 mph - N/A   Mostly Cloudy
6:15 PM 70.2 °F 60.1 °F 70% 30.09 in 10.0 mi Calm Calm - N/A   Clear
6:35 PM 68.4 °F 60.8 °F 77% 30.09 in 10.0 mi Calm Calm - N/A   Clear
6:55 PM 66.6 °F 61.9 °F 85% 30.09 in 10.0 mi NE 3.5 mph - N/A   Clear
7:15 PM 65.3 °F 61.0 °F 86% 30.09 in 10.0 mi NNE 3.5 mph - N/A   Clear
7:35 PM 63.5 °F 61.0 °F 91% 30.09 in 10.0 mi Calm Calm - N/A   Clear
7:55 PM 62.1 °F 60.8 °F 96% 30.09 in 10.0 mi Calm Calm - N/A   Clear
8:15 PM 60.8 °F 60.1 °F 97% 30.10 in 10.0 mi Calm Calm - N/A   Clear
8:35 PM 60.8 °F 59.9 °F 97% 30.10 in 10.0 mi Calm Calm - N/A   Clear
8:55 PM 59.5 °F 59.5 °F 100% 30.11 in 10.0 mi Calm Calm - N/A   Clear
9:15 PM 58.5 °F 58.5 °F 100% 30.11 in 10.0 mi Calm Calm - N/A   Clear
9:35 PM 58.1 °F 58.1 °F 100% 30.11 in 10.0 mi Calm Calm - N/A   Clear
9:55 PM 57.2 °F 57.2 °F 100% 30.12 in 10.0 mi Calm Calm - N/A   Clear
10:15 PM 57.6 °F 57.6 °F 100% 30.12 in 10.0 mi Calm Calm - N/A   Clear
10:35 PM 57.6 °F 57.6 °F 100% 30.11 in 10.0 mi Calm Calm - N/A   Clear
10:55 PM 57.6 °F 57.6 °F 100% 30.11 in 10.0 mi Calm Calm - N/A   Clear
11:15 PM 57.2 °F 57.2 °F 100% 30.11 in 10.0 mi Calm Calm - N/A   Clear
11:35 PM 57.7 °F 57.7 °F 100% 30.11 in 10.0 mi Calm Calm - N/A   Clear
11:55 PM 57.7 °F 57.7 °F 100% 30.10 in 10.0 mi Calm Calm - N/A   Clear